TimeEDT,TemperatureF,Dew PointF,Humidity,Sea Level PressureIn,VisibilityMPH,Wind Direction,Wind SpeedMPH,Gust SpeedMPH,PrecipitationIn,Events,Conditions,WindDirDegrees,DateUTC
12:51 AM,55.9,28.9,36,30.31,10.0,South,3.5,-,N/A,,Partly Cloudy,180,2013-04-28 04:51:00
1:51 AM,55.0,30.0,38,30.30,10.0,SE,3.5,-,N/A,,Partly Cloudy,140,2013-04-28 05:51:00
2:51 AM,54.0,32.0,43,30.28,10.0,SSE,4.6,-,N/A,,Partly Cloudy,160,2013-04-28 06:51:00
3:51 AM,53.1,32.0,45,30.28,10.0,SSE,6.9,-,N/A,,Partly Cloudy,160,2013-04-28 07:51:00
4:51 AM,52.0,37.0,57,30.28,10.0,South,6.9,-,N/A,,Scattered Clouds,180,2013-04-28 08:51:00
5:51 AM,51.1,37.0,59,30.27,10.0,South,6.9,-,N/A,,Scattered Clouds,190,2013-04-28 09:51:00
6:51 AM,52.0,37.0,57,30.29,10.0,SSE,5.8,-,N/A,,Partly Cloudy,150,2013-04-28 10:51:00
7:51 AM,54.0,39.0,57,30.30,10.0,Calm,Calm,-,N/A,,Clear,0,2013-04-28 11:51:00
8:51 AM,57.0,39.0,51,30.31,10.0,Calm,Calm,-,N/A,,Partly Cloudy,0,2013-04-28 12:51:00
9:51 AM,60.1,41.0,49,30.31,10.0,SE,6.9,-,N/A,,Partly Cloudy,140,2013-04-28 13:51:00
10:51 AM,62.1,39.9,44,30.30,10.0,South,8.1,-,N/A,,Scattered Clouds,190,2013-04-28 14:51:00
11:51 AM,64.9,37.9,37,30.30,10.0,SE,8.1,-,N/A,,Mostly Cloudy,140,2013-04-28 15:51:00
12:51 PM,66.0,37.0,34,30.28,10.0,SSE,10.4,-,N/A,,Mostly Cloudy,160,2013-04-28 16:51:00
1:51 PM,66.9,34.0,30,30.27,10.0,South,12.7,-,N/A,,Overcast,170,2013-04-28 17:51:00
2:51 PM,64.0,19.9,18,30.25,10.0,South,17.3,-,N/A,,Mostly Cloudy,180,2013-04-28 18:51:00
3:51 PM,64.9,28.9,26,30.25,10.0,South,17.3,-,N/A,,Mostly Cloudy,170,2013-04-28 19:51:00
4:51 PM,62.1,27.0,26,30.23,10.0,South,19.6,25.3,N/A,,Mostly Cloudy,180,2013-04-28 20:51:00
5:51 PM,60.1,27.0,28,30.22,10.0,SSE,13.8,-,N/A,,Mostly Cloudy,160,2013-04-28 21:51:00
6:51 PM,59.0,26.1,28,30.21,10.0,South,16.1,-,N/A,,Mostly Cloudy,170,2013-04-28 22:51:00
7:51 PM,57.0,28.0,33,30.22,10.0,South,16.1,-,N/A,,Overcast,170,2013-04-28 23:51:00
8:51 PM,55.9,32.0,40,30.22,10.0,South,12.7,-,N/A,,Overcast,170,2013-04-29 00:51:00
9:51 PM,55.9,35.1,45,30.23,10.0,South,9.2,-,N/A,,Overcast,180,2013-04-29 01:51:00
10:51 PM,55.9,37.9,51,30.24,10.0,South,10.4,-,N/A,,Overcast,180,2013-04-29 02:51:00
11:51 PM,55.0,41.0,59,30.24,10.0,South,6.9,-,N/A,,Overcast,180,2013-04-29 03:51:00